TimeCST,TemperatureF,Dew PointF,Humidity,Sea Level PressureIn,VisibilityMPH,Wind Direction,Wind SpeedMPH,Gust SpeedMPH,PrecipitationIn,Events,Conditions,WindDirDegrees,DateUTC
12:53 AM,17.1,12.9,84,30.33,10.0,SW,12.7,-,N/A,,Clear,230,2013-01-04 06:53:00
1:53 AM,16.0,12.0,84,30.30,10.0,WSW,12.7,-,N/A,,Clear,240,2013-01-04 07:53:00
2:53 AM,15.1,10.0,80,30.30,10.0,SW,10.4,-,N/A,,Clear,220,2013-01-04 08:53:00
3:53 AM,12.0,8.1,84,30.31,10.0,WSW,5.8,-,N/A,,Clear,240,2013-01-04 09:53:00
4:53 AM,12.0,8.1,84,30.29,10.0,WSW,8.1,-,N/A,,Clear,240,2013-01-04 10:53:00
5:53 AM,10.9,6.1,81,30.29,10.0,WSW,8.1,-,N/A,,Clear,240,2013-01-04 11:53:00
6:53 AM,10.9,6.1,81,30.29,10.0,WSW,9.2,-,N/A,,Clear,250,2013-01-04 12:53:00
7:53 AM,10.0,5.0,80,30.30,10.0,WSW,8.1,-,N/A,,Clear,240,2013-01-04 13:53:00
8:53 AM,10.9,5.0,77,30.29,10.0,WSW,5.8,-,N/A,,Clear,240,2013-01-04 14:53:00
9:53 AM,16.0,8.1,71,30.31,10.0,WSW,8.1,-,N/A,,Clear,240,2013-01-04 15:53:00
10:53 AM,19.9,10.9,68,30.30,10.0,WSW,5.8,-,N/A,,Clear,250,2013-01-04 16:53:00
11:53 AM,25.0,15.1,66,30.28,10.0,SW,6.9,-,N/A,,Clear,220,2013-01-04 17:53:00
12:53 PM,28.0,16.0,61,30.25,10.0,WSW,6.9,-,N/A,,Clear,250,2013-01-04 18:53:00
1:53 PM,30.9,18.0,59,30.21,10.0,West,4.6,-,N/A,,Clear,270,2013-01-04 19:53:00
2:53 PM,33.1,19.9,59,30.19,10.0,WSW,4.6,-,N/A,,Clear,240,2013-01-04 20:53:00
3:53 PM,28.0,19.9,72,30.21,10.0,South,8.1,-,N/A,,Clear,180,2013-01-04 21:53:00
4:53 PM,25.0,17.1,72,30.21,10.0,South,8.1,-,N/A,,Clear,180,2013-01-04 22:53:00
5:53 PM,23.0,15.1,72,30.22,10.0,SSW,10.4,-,N/A,,Clear,210,2013-01-04 23:53:00
6:53 PM,19.4,12.2,74,30.12,10.0,SW,10.4,-,N/A,,Clear,220,2013-01-05 00:53:00
7:53 PM,21.0,12.9,71,30.22,10.0,SW,11.5,-,N/A,,Clear,220,2013-01-05 01:53:00
8:53 PM,19.9,12.0,71,30.20,10.0,SW,10.4,-,N/A,,Clear,220,2013-01-05 02:53:00
9:53 PM,18.0,10.9,74,30.19,10.0,SW,10.4,-,N/A,,Clear,220,2013-01-05 03:53:00
10:53 PM,19.0,12.0,74,30.18,10.0,SSW,9.2,-,N/A,,Clear,210,2013-01-05 04:53:00
11:53 PM,18.0,12.0,78,30.15,10.0,SSW,6.9,-,N/A,,Clear,200,2013-01-05 05:53:00